Location: Anglesey
(53.1800°N, 4.2200°W)
Time: 23:27:23
(UTC+00:00)

OTV 5 (USA 277) - Pass Details

Date: 13 October 2017
Orbit: 404 x 417 km, 43.0° (Epoch: 07 September)

Event Time Altitude Azimuth Distance (km) Brightness Sun altitude
Rises 20:46:59 0° 238° (WSW) 2,353 ? -21.9°
Reaches altitude 10° 20:49:44 10° 214° (SW) 1,490 ? -22.3°
Enters shadow 20:50:13 12° 207° (SSW) 1,385 ? -22.3°
